#timestamp,LO_Frequency,Hit,StdDev 
1666306815.1,286047000.4,N
1666306816.0,286047000.4,N
1666306835.8,286047000.1,N
1666306855.7,286047002.6,N
1666306875.5,286047000.4,N
1666306895.3,286047002.7,N
1666306915.2,286047002.2,N
1666306935.0,286047002.1,N
1666306935.9,286047002.1,N
1666306955.8,286047001.9,N
1666306975.6,286047004.0,N
1666306995.4,286047003.1,N
1666307015.3,286047004.3,Y
1666307035.1,286047000.0,P
1666307055.9,286046998.4,P
1666307075.7,286046998.1,N
1666307095.5,286047002.7,N
1666307115.4,286046999.8,N
1666307135.2,286046998.5,N
1666307155.0,286046999.5,N
1666307156.0,286046999.5,N
1666307175.8,286047001.0,N
1666307195.6,286047001.5,N
1666307215.5,286047002.1,N
1666307235.6,286047002.2,N
1666307255.4,286047001.3,N
1666307275.2,286047001.5,N
1666307295.1,286047001.6,N
1666307296.0,286047001.6,N
1666307315.8,286047002.3,N
1666307335.7,286047000.0,N
1666307355.5,286046999.7,N
1666307375.3,286047002.9,N
1666307395.2,286047004.4,Y
1666307415.0,286047002.3,P
1666307415.9,286047002.3,N
1666307435.8,286047001.4,N
1666307455.6,286047001.6,N
1666307475.4,286047003.4,Y
1666307495.3,286047001.6,P
1666307515.1,286047000.6,P
1666307535.8,286047000.5,N
1666307555.7,286046998.5,N
1666307575.5,286046999.7,N
1666307595.4,286046998.3,N
1666307615.2,286046999.3,N
1666307635.0,286046998.2,N
1666307635.9,286046998.2,N
1666307655.8,286047000.6,N
1666307675.6,286047002.2,N
1666307695.4,286047000.1,N
1666307715.3,286046998.5,N
1666307735.1,286047000.5,N
1666307755.9,286047000.5,N
1666307775.7,286046997.2,N
1666307795.5,286046995.1,Y
1666307815.4,286046995.3,P
1666307835.2,286046996.5,N
1666307855.1,286046998.7,N
1666307856.0,286046998.7,N
1666307875.8,286047000.1,N
1666307895.6,286047000.5,N
1666307915.5,286046998.4,N
1666307935.3,286046996.5,N
1666307955.2,286046998.8,N
1666307975.0,286047000.7,N
1666307975.9,286047000.7,N
1666307995.7,286046998.3,N
1666308015.6,286046997.2,N
1666308035.4,286046998.9,N
1666308055.3,286046997.1,N
1666308075.1,286046996.8,N
1666308076.0,286046996.8,N
1666308095.8,286047000.6,N
1666308115.7,286046997.3,N
1666308135.5,286046997.8,N
1666308155.4,286046999.4,N
1666308175.2,286046997.2,N
1666308195.0,286046996.5,N
1666308195.9,286046996.5,N
1666308215.8,286047000.7,N
1666308235.6,286047002.6,N
1666308255.4,286046999.8,N
1666308275.3,286047001.2,N
1666308295.1,286046998.3,N
1666308315.9,286046997.9,N
1666308335.7,286046999.5,N
1666308355.5,286046998.8,N
1666308375.4,286046999.6,N
1666308395.2,286047000.9,N
1666308415.0,286046998.7,N
1666308415.9,286046998.7,N
1666308435.8,286047001.0,N
1666308455.6,286046999.9,N
1666308475.5,286047000.2,N
1666308495.3,286047001.1,N
1666308515.1,286047001.1,N
1666308535.9,286047001.9,N
1666308555.7,286047002.8,N
1666308575.5,286047001.1,N
1666308595.4,286046999.9,N
1666308615.2,286047000.9,N
1666308635.1,286046998.2,N
1666308636.0,286046998.2,N
1666308655.8,286046999.5,N
1666308675.6,286047000.0,N
1666308695.5,286046998.5,N
1666308715.3,286046998.1,N
1666308735.1,286047000.3,N
1666308755.9,286046998.9,N
1666308775.7,286047002.6,N
1666308795.6,286047000.4,N
1666308815.4,286047001.6,N
1666308835.2,286047001.9,N
1666308855.1,286047000.5,N
1666308856.0,286047000.5,N
1666308875.8,286047001.5,N
1666308895.6,286047002.3,N
1666308915.5,286047001.7,N
1666308935.3,286047003.3,N
1666308955.2,286047004.1,N
1666308975.9,286047003.9,N
1666308995.7,286047001.8,N
1666309015.6,286047000.2,N
1666309035.4,286047000.4,N
1666309055.2,286047002.4,N
1666309075.1,286046999.7,N
1666309076.0,286046999.7,N
1666309095.8,286047002.1,N
1666309115.7,286047001.0,N
1666309135.5,286046996.7,N
1666309155.3,286046997.0,N
1666309175.2,286046996.9,N
1666309195.0,286046996.6,N
1666309195.9,286046996.6,N
1666309215.8,286046998.6,N
1666309235.6,286047000.4,N
1666309255.4,286047000.2,N
1666309275.3,286047001.4,N
1666309295.1,286047002.1,N
1666309315.8,286046999.9,N
1666309335.7,286047003.9,N
1666309355.5,286047003.5,N
1666309375.4,286047002.7,N
1666309395.2,286046999.0,N
1666309415.0,286046998.8,N
1666309415.9,286046998.8,N
1666309435.8,286047000.8,N
1666309455.6,286047000.8,N
1666309475.4,286047000.7,N
1666309495.3,286046998.7,N
1666309515.1,286047002.7,N
1666309535.9,286047002.1,N
1666309555.7,286046998.8,N
1666309575.5,286047000.8,N
1666309595.4,286047002.2,N
1666309615.2,286046999.7,N
1666309635.1,286047004.4,N
1666309636.0,286047004.4,N
1666309655.8,286047001.8,N
1666309675.6,286047001.5,N
1666309695.5,286047001.4,N
1666309715.3,286047004.0,N
1666309735.2,286046999.7,N
1666309755.9,286047000.2,N
1666309775.7,286047002.4,N
1666309795.6,286047000.8,N
1666309815.4,286047002.2,N
1666309835.3,286047000.6,N
1666309855.1,286047000.7,N
1666309856.0,286047000.7,N
1666309875.8,286046998.1,N
1666309895.7,286047004.0,N
1666309915.5,286047004.2,N
1666309935.3,286047004.5,N
1666309955.2,286047004.8,N
1666309975.0,286047004.7,N
1666310006.0,286047007.0,E
1666310015.9,286047003.3,N
1666310035.7,286047000.8,P
1666310055.6,286047000.7,N
1666310075.4,286047002.4,N
1666310095.2,286047002.0,N
1666310115.1,286047002.3,N
1666310116.0,286047002.3,N
1666310135.8,286047002.4,N
1666310155.6,286047000.1,N
1666310175.5,286046999.8,N
1666310195.3,286046999.9,N
1666310215.2,286046999.9,N
1666310235.9,286046999.7,N
1666310255.7,286047000.6,N
1666310275.6,286047000.0,N
1666310295.4,286047000.0,N
1666310315.2,286047001.0,N
1666310335.1,286046998.4,N
1666310336.0,286046998.4,N
1666310355.8,286046998.4,N
1666310375.7,286046998.7,N
1666310395.5,286046999.1,N
